AirNav   Jet Aviation Boston
 
 333 users online  

TA04 Sheriff Department Heliport
Waco, Texas, USA

GOING TO WACO?


FAA INFORMATION EFFECTIVE 24 MAY 2018

Location

FAA Identifier: TA04
Lat/Long: 31-32-53.6000N / 097-04-43.9980W
31-32.893333N / 097-04.733300W
31.5482222 / -97.0788883
(estimated)
Elevation: 385 ft. / 117 m (estimated)
Variation: 07E (1985)
Time zone: UTC -5 (UTC -6 during Standard Time)
Zip code: 76705

Heliport Operations

Heliport use: Private use. Permission required prior to landing
Activation date: 11/1988
Control tower: no
ARTCC: FORT WORTH CENTER
FSS: FORT WORTH FLIGHT SERVICE STATION
Attendance: CONTINUOUS
Wind indicator: yes
Segmented circle: no

Heliport Communications

WX AWOS-3 at CNW (5 nm N): 134.225 (254-867-3880)
WX ASOS at ACT (9 nm NW): PHONE 254-759-3065
WX AWOS-3PT at PWG (13 nm W): 135.525 (254-848-4581)

Nearby radio navigation aids

VOR radial/distance  VOR name  Freq  Var
ACTr116/11.9WACO VORTAC115.3009E
TPLr032/27.0TEMPLE VOR/DME110.4009E
GNLr261/27.2GROESBECK VOR/DME108.8005E

 
NDB name  Hdg/Dist  Freq  Var  ID
ROBINSON343/2.740007EROB .-. --- -...
MEXIA255/29.532904ELXY .-.. -..- -.--

Heliport Services

Runway Information

Helipad H1

Dimensions: 50 x 50 ft. / 15 x 15 m
Surface: turf
Operational restrictions: WITHIN A 200' X 200' LANDING/TAKEOFF AREA.
Traffic pattern: leftleft

Heliport Ownership and Management from official FAA records

Ownership: Publicly-owned
Owner: MC LELLAN COUNTY SHERIFF DEPT
130 COUNTY RECORDS BLDG
WACO, TX 76701
Phone 817-757-5000
Manager: DAN WEYENBERG
219 NO. 6TH STREET
WACO, TX 76701
Phone 817-757-5111

Heliport Operational Statistics

Aircraft based on the field: 1
Helicopters: 1
    

Instrument Procedures

There are no published instrument procedures at TA04.

Some nearby airports with instrument procedures:

KCNW - TSTC Waco Airport (5 nm N)
KACT - Waco Regional Airport (9 nm NW)
KPWG - Mc Gregor Executive Airport (13 nm W)
T15 - Marlin Airport (17 nm SE)
KTPL - Draughon-Miller Central Texas Regional Airport (29 nm SW)
 
Loc | Ops | Rwys | IFR | FBO | Links
Com | Nav | Svcs | Stats | Notes

AirNav Hotels Sweepstakes
 
Area around TA04 (Sheriff Department Heliport)
 
Road maps at: MapQuest Bing Google
 
Aerial photo
No photo
 
Sectional chart

 
Airport distance calculator
Flying to Sheriff Department Heliport? Find the distance to fly.

From to TA04

Sunrise and sunset
Times for 26-May-2018
 Local
(UTC-5)
 Zulu
(UTC)
Morning civil twilight06:0011:00
Sunrise06:2711:27
Sunset20:2401:24
Evening civil twilight20:5101:51

Current date and time
Zulu (UTC)  26-May-2018 06:18:39
Local (UTC-5)  26-May-2018 01:18:39
 
METAR
KCNW 
5nm N 
260355Z 00000KT 10SM SKC 24/18 A2987
KACT 
9nm NW 
260551Z AUTO 21006KT 10SM FEW110 23/19 A2988 RMK AO2 LTG DSNT N SLP110 T02330194 10283 20228 403440222 51007
KPWG 
13nm W 
260556Z AUTO 20004KT 10SM SCT120 23/20 A2989 RMK AO2 SLP126 T02330200 10289 20228 403440211 53008
TAF
KACT 
9nm NW 
260520Z 2606/2706 17008KT P6SM VCTS SCT060CB BKN130 FM260800 17008KT P6SM VCSH SCT060 BKN130 FM261100 17008KT P6SM SCT035 FM261800 14008KT P6SM SCT050 SCT250
NOTAMs
Click for the latest NOTAMs
NOTAMs are issued by the DoD/FAA and will open in a separate window not controlled by AirNav.

 

 
 

Would you like to see your business listed on this page?

 If your business provides an interesting product or service to pilots, flight crews, aircraft, or users of the Sheriff Department Heliport, you should consider listing it here.  To start the listing process, click on the button below
 
Add a business
 

Other Pages about Sheriff Department Heliport

Update a link
 
Copyright © AirNav, LLC. All rights reserved. Privacy Policy  Contact